Regional Weather Roundup
Issued by NWS Little Rock, AR

Home | Current Version | Previous Version | Text Only | Print | Product List | Glossary Off
Versions: 1 2 3 4 5 6 7 8 9 10 11 12 13 14 15 16 17 18 19 20 21 22 23 24 25 26 27 28 29 30 31 32 33 34 35 36 37 38 39 40 41 42 43 44 45 46 47 48 49 50

000
ASUS44 KLZK 260405
RWRLZK

WEATHER ROUNDUP FOR ARKANSAS
NATIONAL WEATHER SERVICE LITTLE ROCK AR
1100 PM CDT FRI JUL 25 2014

NOTE: "FAIR" INDICATES FEW OR NO CLOUDS BELOW 12,000 FEET WITH NO
SIGNIFICANT WEATHER AND/OR OBSTRUCTIONS TO VISIBILITY.

ARZ001-003-010-029-260500-
NORTHWEST ARKANSAS

CITY           SKY/WX    TMP DP  RH WIND       PRES   REMARKS
FAYETTEVILLE   CLEAR     77  72  84 SW6       29.97R
FORT SMITH     CLEAR     81  73  76 SE3       29.94S HX  86
HARRISON       CLEAR     76  72  87 S8        29.97R
BENTONVILLE    CLEAR     77  70  78 S7        29.98R
ROGERS         CLEAR     77  70  79 S7        29.98R
SILOAM SPGS    CLEAR     77  66  69 S8        29.98R
HIGHFILL       CLEAR     76  72  87 S6        29.97R
$$

ARZ004-005-016-260500-
NORTH CENTRAL ARKANSAS

CITY           SKY/WX    TMP DP  RH WIND       PRES   REMARKS
BATESVILLE     CLEAR     75  70  83 SE5       29.97R
FLIPPIN        CLEAR     77  72  83 S6        29.95S
MTN HOME       CLEAR     74  71  91 SE3       29.95S
$$

ARZ040-041-260500-
WEST CENTRAL ARKANSAS

CITY           SKY/WX    TMP DP  RH WIND       PRES   REMARKS
MENA           CLEAR     75  73  94 CALM      30.00S
MOUNT IDA      CLEAR     73  72  96 CALM      29.97R FOG
$$

ARZ009-017-025-026-028-260500-
NORTHEAST ARKANSAS

CITY           SKY/WX    TMP DP  RH WIND       PRES   REMARKS
JONESBORO      PTCLDY    70  66  87 CALM      29.97R
NEWPORT        CLEAR     73  71  93 S7        29.98R
WALNUT RIDGE   CLEAR     73  46  38 S7        29.95S
BLYTHEVILLE    PTCLDY    72  66  81 CALM      29.98R
$$

ARZ022-023-033-042-044-260500-
CENTRAL ARKANSAS

CITY           SKY/WX    TMP DP  RH WIND       PRES   REMARKS
LITTLE ROCK    CLEAR     77  71  82 S7        29.97R
N LITTLE ROCK  CLEAR     77  73  87 S2        29.97R
JACKSONVILLE   CLEAR     75  73  91 SE3       29.98R
SEARCY         CLEAR     73  72  97 CALM      29.98S
HOT SPRINGS    CLEAR     77  72  84 CALM      29.98S
RUSSELLVILLE   CLEAR     75  73  93 CALM      29.95S
CLINTON        FAIR      73  72  94 CALM      29.98R FOG
$$

ARZ036-260500-
EAST ARKANSAS

CITY           SKY/WX    TMP DP  RH WIND       PRES   REMARKS
WEST MEMPHIS   PTCLDY    74  67  78 SW5       29.97R
$$

ARZ050-053-066-070-073-260500-
SOUTHWEST ARKANSAS

CITY           SKY/WX    TMP DP  RH WIND       PRES   REMARKS
ARKADELPHIA    FAIR      77  77 100 CALM      29.98R FOG
CAMDEN         CLEAR     75  72  88 CALM      29.98S FOG
TEXARKANA      CLEAR     81  74  79 S7        29.98R HX  86
EL DORADO      CLEAR     76  75  97 CALM      29.99S
DE QUEEN       FOG       75  75 100 CALM      29.95S VSB 1/4
$$

ARZ056-057-069-260500-
SOUTHEAST ARKANSAS

CITY           SKY/WX    TMP DP  RH WIND       PRES   REMARKS
PINE BLUFF     CLEAR     75  71  87 S5        29.98R
STUTTGART      CLEAR     77  70  78 SE6       29.99R
MONTICELLO     CLEAR     78  72  81 S5        29.98S

$$




USA.gov is the U.S. government's official web portal to all federal, state and local government web resources and services.